This demonstration page uses our WeatherBlox Daily Observations layout. Learn more.

Left ArrowRight Arrow

Hourly Observations for March 23, 2021

Temp ( °F °C ) Dew Point ( °F °C ) Humidity (%) Winds ( mph kmh ) Pressure ( in mb ) Visibility ( mi km ) Precip ( " mm )
12:53 am 00:53 Mostly Cloudy 37 2.8 23 -5 57 57 N 5 7 29.96 1015 10 16.0934 0 0
1:53 am 01:53 Mostly Cloudy 34 1.1 24 -4.4 67 67 W 7 11 29.99 1016 10 16.0934 0 0
2:53 am 02:53 Cloudy 35 1.7 25 -3.9 67 67 NNW 10 17 30.03 1017 10 16.0934 0 0
3:53 am 03:53 Cloudy 33 0.6 26 -3.3 75 75 N 9 15 30.08 1019 10 16.0934 0 0
4:08 am 04:08 Cloudy 33 0.6 27 -2.8 78 78 NNW 10 17 30.14 1021 10 16.0934 0 0
4:38 am 04:38 Cloudy 32 0 28 -2.2 85 85 N 7 11 30.17 1022 10 16.0934 0 0
4:53 am 04:53 Cloudy 33 0.6 29 -1.7 85 85 N 9 15 30.11 1020 10 16.0934 0 0
5:29 am 05:29 Cloudy 33 0.6 28 -2.2 82 82 N 14 22 30.18 1022 10 16.0934 0.001 0.001
5:53 am 05:53 Cloudy 33 0.6 27 -2.8 78 78 N 13 20 30.15 1021 10 16.0934 0.001 0.001
6:20 am 06:20 Cloudy 33 0.6 27 -2.8 78 78 N 13 20 30.21 1023 9 14.48406 0 0
6:53 am 06:53 Cloudy 33 0.6 26 -3.3 75 75 NNW 8 13 30.19 1022 10 16.0934 0 0
7:53 am 07:53 Cloudy 33 0.6 26 -3.3 75 75 N 12 19 30.22 1023 10 16.0934 0 0
8:53 am 08:53 Cloudy 33 0.6 26 -3.3 75 75 N 13 20 30.25 1025 10 16.0934 0 0
9:53 am 09:53 Cloudy 32 0 25 -3.9 75 75 NNW 14 22 30.28 1025 10 16.0934 0 0
10:05 am 10:05 Cloudy 33 0.6 25 -3.9 72 72 NNW 16 26 30.32 1027 10 16.0934 0 0
10:53 am 10:53 Cloudy 33 0.6 25 -3.9 72 72 N 14 22 30.32 1027 10 16.0934 0 0
11:26 am 11:26 Cloudy 34 1.1 24 -4.4 67 67 N 12 19 30.35 1028 10 16.0934 0 0
11:53 am 11:53 Cloudy 34 1.1 24 -4.4 67 67 NNW 10 17 30.33 1027 10 16.0934 0 0
12:53 pm 12:53 Cloudy 35 1.7 25 -3.9 67 67 WNW 10 17 30.34 1027 10 16.0934 0 0
1:53 pm 13:53 Cloudy 36 2.2 24 -4.4 62 62 NW 13 20 30.34 1028 10 16.0934 0 0
2:21 pm 14:21 Cloudy 37 2.8 24 -4.4 59 59 WNW 12 19 30.33 1027 10 16.0934 0 0
2:53 pm 14:53 Cloudy 38 3.3 23 -5 55 55 VRB 5 7 30.31 1027 10 16.0934 0 0
3:53 pm 15:53 Cloudy 38 3.3 20 -6.7 48 48 WSW 3 6 30.3 1026 10 16.0934 0 0
4:53 pm 16:53 Cloudy 39 3.9 20 -6.7 46 46 W 12 19 30.29 1026 10 16.0934 0 0
5:53 pm 17:53 Partly Cloudy 39 3.9 20 -6.7 46 46 WSW 7 11 30.27 1025 10 16.0934 0 0
6:53 pm 18:53 Sunny 37 2.8 20 -6.7 50 50 SW 10 17 30.25 1024 10 16.0934 0 0
7:53 pm 19:53 Clear 30 -1.1 19 -7.2 64 64 SW 7 11 30.25 1025 10 16.0934 0 0
8:53 pm 20:53 Clear 24 -4.4 16 -8.9 71 71 S 9 15 30.24 1024 10 16.0934 0 0
9:53 pm 21:53 Clear 24 -4.4 17 -8.3 75 75 SSW 6 9 30.22 1023 10 16.0934 0 0
10:53 pm 22:53 Clear 24 -4.4 17 -8.3 75 75 Calm 30.19 1022 10 16.0934 0 0
11:53 pm 23:53 Clear 23 -5 17 -8.3 78 78 Calm 30.15 1021 10 16.0934 0 0

Powered by AerisWeather